Sunlight Mountain, CO

4:51 PM MDT on September 19, 2017 (GMT -0600)
Sunlight Mountain

Weather History for K5SM - September, 2013

Change the Weather History Date:

Saturday, September 28, 2013

  Actual Average (KRIL) Record (KRIL)
Temperature  
Mean Temperature 32 °F -  
Max Temperature 42 °F 75 °F 90 °F (1947)
Min Temperature 23 °F 36 °F 25 °F (1974)
Degree Days  
Heating Degree Days 32    
Moisture  
Dew Point 28 °F    
Average Humidity 89    
Maximum Humidity 100    
Minimum Humidity 69    
Precipitation  
Precipitation 0.00 in - - ()
Sea Level Pressure  
Sea Level Pressure 30.38 in    
Wind  
Wind Speed 0 mph (North)    
Max Wind Speed 0 mph    
Max Gust Speed -    
Visibility 10 miles    
Events      
Averages and records for this station are not official NWS values.
T = Trace of Precipitation, MM = Missing Value Source: NWS Daily Summary

Daily Weather History Graph

Daily Weather History Graph

Search for Another Location

Airport or City:

Trip Planner

Search our weather history database for the weather conditions in past years. The results will help you decide how hot, cold, wet, or windy it might be!

Date:

Astronomy

Sep. 28, 2013 Rise Set
Actual Time 7:03 AM MDT 6:56 PM MDT
Civil Twilight 6:36 AM MDT 7:23 PM MDT
Nautical Twilight 6:05 AM MDT 7:54 PM MDT
Astronomical Twilight 5:33 AM MDT 8:25 PM MDT
Moon 12:54 AM MDT (9/28) 3:15 PM MDT (9/28)
Length of Visible Light 12h 46m
Length of Day
11h 53m
Waning Crescent, 35% of the Moon is Illuminated
Sep 28
Waning Crescent
Oct 4
New
Oct 11
First Quarter
Oct 18
Full
Oct 26
Last Quarter

Hourly Weather History & Observations

Time (MDT) Temp. Dew Point Humidity Pressure Visibility Wind Dir Wind Speed Gust Speed Precip Events Conditions
12:16 AM 26.6 °F 24.8 °F 93% 30.25 in 10.0 mi Calm Calm - N/A   Overcast
12:36 AM 26.6 °F 24.8 °F 93% 30.26 in 10.0 mi Calm Calm - N/A   Overcast
12:56 AM 26.6 °F 24.8 °F 93% 30.26 in 10.0 mi Calm Calm - N/A   Overcast
1:16 AM 26.6 °F 24.8 °F 93% 30.27 in 10.0 mi Calm Calm - N/A   Overcast
1:36 AM 26.6 °F 24.8 °F 93% 30.28 in 10.0 mi Calm Calm - N/A   Overcast
1:56 AM 26.6 °F 24.8 °F 93% 30.27 in 10.0 mi Calm Calm - N/A   Overcast
2:16 AM 26.6 °F 24.8 °F 93% 30.29 in 10.0 mi Calm Calm - N/A   Overcast
2:36 AM 26.6 °F 24.8 °F 93% 30.28 in 10.0 mi Calm Calm - N/A   Overcast
2:56 AM 26.6 °F 24.8 °F 93% 30.29 in 10.0 mi Calm Calm - N/A   Overcast
3:16 AM 26.6 °F 24.8 °F 93% 30.29 in 10.0 mi Calm Calm - N/A   Overcast
3:36 AM 26.6 °F 23.0 °F 86% 30.30 in 10.0 mi Calm Calm - N/A   Overcast
3:56 AM 24.8 °F 23.0 °F 93% 30.29 in 10.0 mi Calm Calm - N/A   Overcast
4:16 AM 24.8 °F 23.0 °F 93% 30.29 in 10.0 mi Calm Calm - N/A   Mostly Cloudy
4:36 AM 23.0 °F 21.2 °F 93% 30.30 in 10.0 mi Calm Calm - N/A   Scattered Clouds
4:56 AM 23.0 °F 21.2 °F 93% 30.31 in 10.0 mi Calm Calm - N/A   Scattered Clouds
5:16 AM 23.0 °F 21.2 °F 93% 30.31 in 10.0 mi Calm Calm - N/A   Mostly Cloudy
5:36 AM 23.0 °F 21.2 °F 93% 30.32 in 10.0 mi Calm Calm - N/A   Scattered Clouds
5:56 AM 23.0 °F 21.2 °F 93% 30.32 in 10.0 mi Calm Calm - N/A   Clear
6:16 AM 23.0 °F 21.2 °F 93% 30.32 in 10.0 mi Calm Calm - N/A   Clear
6:36 AM 23.0 °F 21.2 °F 93% 30.33 in 10.0 mi Calm Calm - N/A   Clear
6:56 AM 23.0 °F 21.2 °F 93% 30.33 in 10.0 mi Calm Calm - N/A   Clear
7:16 AM 23.0 °F 21.2 °F 93% 30.34 in 10.0 mi Calm Calm - N/A   Clear
7:36 AM 23.0 °F 21.2 °F 93% 30.35 in 10.0 mi Calm Calm - N/A   Clear
7:57 AM 23.0 °F 21.2 °F 93% 30.36 in 10.0 mi Calm Calm - N/A   Clear
8:17 AM 24.8 °F 23.0 °F 93% 30.37 in 10.0 mi Calm Calm - N/A   Clear
8:36 AM 24.8 °F 23.0 °F 93% 30.37 in 10.0 mi Calm Calm - N/A   Clear
8:56 AM 26.6 °F 23.0 °F 86% 30.38 in 10.0 mi Calm Calm - N/A   Clear
9:17 AM 26.6 °F 24.8 °F 93% 30.38 in 10.0 mi Calm Calm - N/A   Clear
9:37 AM 28.4 °F 23.0 °F 80% 30.39 in 10.0 mi Calm Calm - N/A   Clear
9:57 AM 28.4 °F 26.6 °F 93% 30.39 in 10.0 mi Calm Calm - N/A   Clear
10:17 AM 30.2 °F 26.6 °F 86% 30.40 in 10.0 mi Calm Calm - N/A   Clear
10:37 AM 32.0 °F 26.6 °F 80% 30.40 in 10.0 mi Calm Calm - N/A   Clear
10:57 AM 32.0 °F 28.4 °F 87% 30.40 in 10.0 mi Calm Calm - N/A   Clear
11:17 AM 33.8 °F 28.4 °F 81% 30.40 in 10.0 mi Calm Calm - N/A   Clear
11:36 AM 32.0 °F 23.0 °F 69% 30.40 in 10.0 mi Calm Calm - N/A   Clear
11:57 AM 33.8 °F 28.4 °F 81% 30.40 in 10.0 mi Calm Calm - N/A   Clear
12:16 PM 35.6 °F 32.0 °F 87% 30.41 in 10.0 mi Calm Calm - N/A   Clear
12:37 PM 35.6 °F 32.0 °F 87% 30.41 in 10.0 mi Calm Calm - N/A   Scattered Clouds
12:57 PM 37.4 °F 32.0 °F 81% 30.42 in 10.0 mi Calm Calm - N/A   Clear
1:16 PM 37.4 °F 32.0 °F 81% 30.42 in 10.0 mi Calm Calm - N/A   Clear
1:36 PM 37.4 °F 33.8 °F 87% 30.41 in 10.0 mi Calm Calm - N/A   Clear
1:57 PM 37.4 °F 33.8 °F 87% 30.41 in 10.0 mi Calm Calm - N/A   Clear
2:17 PM 39.2 °F 33.8 °F 81% 30.41 in 10.0 mi Calm Calm - N/A   Clear
2:37 PM 41.0 °F 35.6 °F 81% 30.41 in 10.0 mi Calm Calm - N/A   Clear
2:56 PM 41.0 °F 35.6 °F 81% 30.42 in 10.0 mi Calm Calm - N/A   Clear
3:17 PM 41.0 °F 37.4 °F 87% 30.42 in 10.0 mi Calm Calm - N/A   Clear
3:37 PM 41.0 °F 37.4 °F 87% 30.42 in 10.0 mi Calm Calm - N/A   Clear
3:57 PM 42.8 °F 35.6 °F 76% 30.42 in 10.0 mi Calm Calm - N/A   Clear
4:17 PM 42.8 °F 37.4 °F 81% 30.42 in 10.0 mi Calm Calm - N/A   Clear
4:37 PM 41.0 °F 37.4 °F 87% 30.42 in 10.0 mi Calm Calm - N/A   Clear
4:57 PM 41.0 °F 35.6 °F 81% 30.43 in 10.0 mi Calm Calm - N/A   Clear
5:17 PM 41.0 °F 35.6 °F 81% 30.43 in 10.0 mi Calm Calm - N/A   Clear
5:37 PM 39.2 °F 35.6 °F 87% 30.43 in 10.0 mi Calm Calm - N/A   Clear
5:57 PM 37.4 °F 35.6 °F 93% 30.44 in 10.0 mi Calm Calm - N/A   Clear
6:17 PM 37.4 °F 33.8 °F 87% 30.43 in 10.0 mi Calm Calm - N/A   Clear
6:37 PM 35.6 °F 33.8 °F 93% 30.43 in 10.0 mi Calm Calm - N/A   Clear
6:57 PM 33.8 °F 33.8 °F 100% 30.43 in 5.0 mi Calm Calm - N/A   Clear
7:16 PM 33.8 °F 32.0 °F 93% 30.43 in 10.0 mi Calm Calm - N/A   Clear
7:36 PM 33.8 °F 32.0 °F 93% 30.43 in 10.0 mi Calm Calm - N/A   Clear
7:56 PM 33.8 °F 32.0 °F 93% 30.43 in 10.0 mi Calm Calm - N/A   Clear
8:16 PM 32.0 °F 32.0 °F 100% 30.44 in 10.0 mi Calm Calm - N/A   Clear
8:37 PM 32.0 °F 30.2 °F 93% 30.44 in 10.0 mi Calm Calm - N/A   Clear
8:57 PM 32.0 °F 30.2 °F 93% 30.45 in 10.0 mi Calm Calm - N/A   Clear
9:17 PM 32.0 °F 28.4 °F 87% 30.45 in 10.0 mi Calm Calm - N/A   Clear
9:37 PM 32.0 °F 28.4 °F 87% 30.45 in 10.0 mi Calm Calm - N/A   Clear
9:57 PM 32.0 °F 28.4 °F 87% 30.45 in 10.0 mi Calm Calm - N/A   Clear
10:17 PM 32.0 °F 30.2 °F 93% 30.45 in 10.0 mi Calm Calm - N/A   Clear
10:36 PM 32.0 °F 28.4 °F 87% 30.45 in 10.0 mi Calm Calm - N/A   Clear
10:57 PM 32.0 °F 28.4 °F 87% 30.44 in 10.0 mi Calm Calm - N/A   Clear
11:17 PM 32.0 °F 28.4 °F 87% 30.44 in 10.0 mi Calm Calm - N/A   Clear
11:37 PM 32.0 °F 28.4 °F 87% 30.44 in 10.0 mi Calm Calm - N/A   Clear
11:56 PM 32.0 °F 26.6 °F 80% 30.44 in 10.0 mi Calm Calm - N/A   Clear